Location: Unspecified
(0.0000°N, 0.0000°E)
Time: 05:18:32
(UTC+00:00)

deb Delta 104 - Pass Details

Date: 11 March 2026
Orbit: 1339 x 1584 km, 100.8° (Epoch: 15 April)

Event Time Altitude Azimuth Distance (km) Brightness Sun altitude
Exits shadow 20:47:57 20° 174° (S) 3,045 ? -39.4°
Drops below altitude 10° 20:50:19 10° 180° (S) 3,789 ? -40.0°
Sets 20:53:18 0° 184° (S) 4,777 ? -40.8°
